K6OUA-11 Weather Reports


time (UTC)temp
F
wind
direction
speed
knots
gust
knots
rain 1hr
in
rain 24hr
in
rain mn
in
humidity
%
barometer
mb
20260902120629 55 61 0.0 0.0 0.00 0.00 0.00 87
20260902120427 55 61 0.0 0.0 0.00 0.00 0.00 87
20260902120023 55 61 0.0 0.0 0.00 0.00 0.00 86
20260902115821 55 61 0.0 0.0 0.00 0.00 0.00 86
20260902115619 55 61 0.0 0.0 0.00 0.00 0.00 86
20260902115417 55 61 0.0 0.0 0.00 0.00 0.00 86
20260902115215 55 61 0.0 0.0 0.00 0.00 0.00 85
20260902115014 55 61 0.0 0.0 0.00 0.00 0.00 85
20260902114812 55 61 0.0 0.0 0.00 0.00 0.00 85
20260902114610 55 61 0.0 0.0 0.00 0.00 0.00 85
20260902114408 55 61 0.0 0.0 0.00 0.00 0.00 85
20260902113802 56 61 0.0 0.0 0.00 0.00 0.00 86
20260902113600 56 61 0.0 0.0 0.00 0.00 0.00 86
20260902113358 56 61 0.0 0.0 0.00 0.00 0.00 86
20260902113156 56 61 0.0 0.0 0.00 0.00 0.00 86
20260902112954 56 61 0.0 0.0 0.00 0.00 0.00 86
20260902112752 56 61 0.0 0.0 0.00 0.00 0.00 86
20260902112551 56 61 0.0 0.0 0.00 0.00 0.00 86
20260902112349 56 61 0.0 0.0 0.00 0.00 0.00 86
20260902112147 56 61 0.0 0.0 0.00 0.00 0.00 86
20260902111945 56 61 0.0 0.0 0.00 0.00 0.00 86
20260902111743 56 61 0.0 3.5 0.00 0.00 0.00 86
20260902111541 56 61 0.0 3.5 0.00 0.00 0.00 86
20260902111339 56 61 0.0 3.5 0.00 0.00 0.00 86
20260902111137 56 61 0.0 0.0 0.00 0.00 0.00 86
20260902110935 56 61 0.0 0.0 0.00 0.00 0.00 86
20260902110734 56 33 0.0 0.0 0.00 0.00 0.00 86
20260902110532 56 33 0.0 0.0 0.00 0.00 0.00 86
20260902110330 56 33 0.0 0.0 0.00 0.00 0.00 86
20260902110128 56 33 0.0 0.9 0.00 0.00 0.00 86
20260902105926 56 33 0.0 0.9 0.00 0.00 0.00 86
20260902105724 56 33 0.0 0.9 0.00 0.00 0.00 87
20260902105522 56 33 0.0 0.9 0.00 0.00 0.00 87
20260902105320 56 33 0.0 0.9 0.00 0.00 0.00 87
20260902105118 56 54 0.0 0.0 0.00 0.00 0.00 87
20260902104916 56 54 0.0 0.0 0.00 0.00 0.00 87
20260902104714 56 54 0.0 1.7 0.00 0.00 0.00 87
20260902104312 56 54 0.0 1.7 0.00 0.00 0.00 87
20260902104111 56 54 0.0 2.6 0.00 0.00 0.00 87
20260902103907 56 73 0.9 2.6 0.00 0.00 0.00 86
20260902103705 56 104 1.7 1.7 0.00 0.00 0.00 86
20260902103503 56 109 1.7 1.7 0.00 0.00 0.00 87
20260902103301 57 70 0.0 1.7 0.00 0.00 0.00 87
20260902103059 57 78 0.0 0.0 0.00 0.00 0.00 87
20260902102857 57 78 0.0 0.0 0.00 0.00 0.00 87
20260902102655 57 78 0.0 0.0 0.00 0.00 0.00 87
20260902102454 57 78 0.0 0.0 0.00 0.00 0.00 87
20260902102050 57 78 0.0 0.0 0.00 0.00 0.00 87
20260902101848 57 78 0.0 0.0 0.00 0.00 0.00 86
20260902101646 57 78 0.0 0.0 0.00 0.00 0.00 86
20260902101444 57 78 0.0 0.0 0.00 0.00 0.00 86
20260902101242 57 78 0.0 0.0 0.00 0.00 0.00 85
20260902101040 57 78 0.0 0.0 0.00 0.00 0.00 85
20260902100838 58 78 0.0 0.0 0.00 0.00 0.00 85
20260902100636 58 78 0.0 1.7 0.00 0.00 0.00 85
20260902100435 58 78 0.0 1.7 0.00 0.00 0.00 85
20260902100233 58 78 0.0 2.6 0.00 0.00 0.00 86
20260902100031 58 78 0.0 2.6 0.00 0.00 0.00 86
20260902095829 58 94 0.0 2.6 0.00 0.00 0.00 86
20260902095627 58 109 2.6 0.0 0.00 0.00 0.00 87
20260902095425 58 50 0.0 0.0 0.00 0.00 0.00 86
20260902095223 58 50 0.0 0.0 0.00 0.00 0.00 87
20260902095021 58 50 0.0 0.0 0.00 0.00 0.00 87
20260902094819 58 50 0.0 0.0 0.00 0.00 0.00 87
20260902094617 58 50 0.0 0.9 0.00 0.00 0.00 87
20260902094416 58 50 0.0 0.9 0.00 0.00 0.00 87
20260902094214 58 50 0.0 1.7 0.00 0.00 0.00 87
20260902094012 58 50 0.0 1.7 0.00 0.00 0.00 87
20260902093810 58 56 0.0 1.7 0.00 0.00 0.00 87
20260902093608 58 46 0.0 3.5 0.00 0.00 0.00 87
20260902093406 58 46 0.0 3.5 0.00 0.00 0.00 87
20260902093204 58 68 0.0 3.5 0.00 0.00 0.00 87
20260902092800 58 85 2.6 3.5 0.00 0.00 0.00 86
20260902092558 58 87 2.6 3.5 0.00 0.00 0.00 86
20260902092357 58 81 0.9 3.5 0.00 0.00 0.00 86
20260902092155 58 143 1.7 3.5 0.00 0.00 0.00 86
20260902091953 58 71 0.0 3.5 0.00 0.00 0.00 86
20260902091751 58 90 0.9 3.5 0.00 0.00 0.00 86
20260902091549 58 101 0.9 2.6 0.00 0.00 0.00 86
20260902091347 58 87 1.7 2.6 0.00 0.00 0.00 86
20260902091145 58 94 1.7 4.3 0.00 0.00 0.00 86
20260902090943 58 82 0.9 4.3 0.00 0.00 0.00 86
20260902090743 58 73 0.0 0.0 0.00 0.00 0.00 86
20260902090339 58 122 1.7 0.0 0.00 0.00 0.00 87
20260902085935 58 291 0.0 0.0 0.00 0.00 0.00 86
20260902085732 58 291 0.0 0.0 0.00 0.00 0.00 86
20260902085530 58 291 0.0 0.0 0.00 0.00 0.00 86
20260902085328 58 291 0.0 0.0 0.00 0.00 0.00 86
20260902085126 58 291 0.0 0.0 0.00 0.00 0.00 86
20260902084926 58 291 0.0 0.0 0.00 0.00 0.00 87
20260902084520 58 291 0.0 0.0 0.00 0.00 0.00 87
20260902084318 58 291 0.0 0.0 0.00 0.00 0.00 87
20260902084117 58 291 0.0 0.0 0.00 0.00 0.00 87
20260902083916 58 291 0.0 0.0 0.00 0.00 0.00 87
20260902083713 58 291 0.0 0.0 0.00 0.00 0.00 87
20260902083512 58 291 0.0 0.0 0.00 0.00 0.00 87
20260902083309 58 291 0.0 0.0 0.00 0.00 0.00 86
20260902083107 58 291 0.0 0.0 0.00 0.00 0.00 86
20260902082907 58 291 0.0 0.0 0.00 0.00 0.00 86
20260902082703 58 291 0.0 0.0 0.00 0.00 0.00 86
20260902082501 58 291 0.0 0.0 0.00 0.00 0.00 86
20260902082259 58 291 0.0 0.0 0.00 0.00 0.00 86
20260902082057 58 291 0.0 0.0 0.00 0.00 0.00 86
20260902081856 58 291 0.0 0.0 0.00 0.00 0.00 86
20260902081453 58 291 0.0 0.0 0.00 0.00 0.00 86
20260902081250 58 291 0.0 0.0 0.00 0.00 0.00 86
20260902081048 58 291 0.0 0.0 0.00 0.00 0.00 86
20260902080846 58 291 0.0 0.0 0.00 0.00 0.00 86
20260902080644 58 291 0.0 0.0 0.00 0.00 0.00 86
20260902080442 58 291 0.0 0.0 0.00 0.00 0.00 86
20260902080240 58 291 0.0 0.0 0.00 0.00 0.00 86
20260902080040 58 291 0.0 0.0 0.00 0.00 0.00 86
20260902075837 58 291 0.0 0.0 0.00 0.00 0.00 86
20260902075635 58 291 0.0 0.0 0.00 0.00 0.00 86
20260902075433 58 291 0.0 0.0 0.00 0.00 0.00 86
20260902075231 57 291 0.0 0.0 0.00 0.00 0.00 85
20260902075029 57 291 0.0 0.0 0.00 0.00 0.00 85
20260902074827 58 291 0.0 0.0 0.00 0.00 0.00 85
20260902074625 58 291 0.0 0.0 0.00 0.00 0.00 85
20260902074423 58 291 0.0 0.0 0.00 0.00 0.00 85
20260902074221 58 291 0.0 0.0 0.00 0.00 0.00 85
20260902074019 58 291 0.0 0.0 0.00 0.00 0.00 85
20260902073817 58 291 0.0 0.0 0.00 0.00 0.00 85
20260902073616 59 291 0.0 0.0 0.00 0.00 0.00 85
20260902073414 59 291 0.0 0.0 0.00 0.00 0.00 85
20260902073212 59 291 0.0 0.0 0.00 0.00 0.00 85
20260902073010 59 291 0.0 0.0 0.00 0.00 0.00 85
20260902072808 59 291 0.0 0.0 0.00 0.00 0.00 85
20260902072606 59 291 0.0 0.0 0.00 0.00 0.00 85
20260902072404 59 291 0.0 0.0 0.00 0.00 0.00 85
20260902072202 59 291 0.0 0.0 0.00 0.00 0.00 84
20260902072002 59 291 0.0 0.0 0.00 0.00 0.00 84
20260902071758 59 291 0.0 0.0 0.00 0.00 0.00 84
20260902071556 59 291 0.0 0.0 0.00 0.00 0.00 84
20260902071355 59 291 0.0 0.0 0.00 0.00 0.00 84
20260902071155 59 291 0.0 0.0 0.00 0.00 0.00 84
20260902070951 59 291 0.0 0.0 0.00 0.00 0.00 84
20260902070749 59 291 0.0 0.0 0.00 0.00 0.00 84
20260902070547 59 291 0.0 0.0 0.00 0.00 0.00 84
20260902070347 59 291 0.0 0.0 0.00 0.00 0.00 84
20260902070145 59 291 0.0 0.0 0.00 0.00 0.00 84
20260902065943 59 291 0.0 0.0 0.00 0.00 0.00 84
20260902065739 59 291 0.0 0.0 0.00 0.00 0.00 83
20260902065539 59 291 0.0 0.0 0.00 0.00 0.00 84
20260902064932 60 291 0.0 1.7 0.00 0.00 0.00 83
20260902064730 60 291 0.0 1.7 0.00 0.00 0.00 83
20260902064528 60 291 0.0 1.7 0.00 0.00 0.00 83
20260902064326 60 306 0.0 1.7 0.00 0.00 0.00 83
20260902064124 60 305 1.7 0.0 0.00 0.00 0.00 83
20260902063924 60 282 0.0 0.0 0.00 0.00 0.00 83
20260902063720 60 282 0.0 1.7 0.00 0.00 0.00 83
20260902063520 60 282 0.0 1.7 0.00 0.00 0.00 83
20260902063317 60 282 0.0 1.7 0.00 0.00 0.00 83
20260902063116 60 298 0.0 0.0 0.00 0.00 0.00 83
20260902062915 60 302 0.9 0.0 0.00 0.00 0.00 83
20260902062711 60 12 0.0 0.0 0.00 0.00 0.00 83
20260902062511 60 12 0.0 0.0 0.00 0.00 0.00 83
20260902062309 60 12 0.0 0.0 0.00 0.00 0.00 83
20260902062105 60 12 0.0 0.0 0.00 0.00 0.00 83
20260902061701 61 12 0.0 0.0 0.00 0.00 0.00 82
20260902061257 61 12 0.0 0.0 0.00 0.00 0.00 83
20260902061056 61 12 0.0 0.0 0.00 0.00 0.00 83
20260902060856 61 12 0.0 0.0 0.00 0.00 0.00 83
20260902060450 61 12 0.0 0.0 0.00 0.00 0.00 83
20260902060250 61 12 0.0 0.0 0.00 0.00 0.00 82
20260902060046 61 12 0.0 0.0 0.00 0.00 0.00 82
20260902055642 61 12 0.0 0.0 0.00 0.00 0.00 82
20260902055442 61 12 0.0 0.0 0.00 0.00 0.00 82
20260902055240 61 12 0.0 0.0 0.00 0.00 0.00 82
20260902055038 62 12 0.0 0.0 0.00 0.00 0.00 82
20260902054837 62 12 0.0 0.0 0.00 0.00 0.00 82
20260902054433 62 12 0.0 0.0 0.00 0.00 0.00 82
20260902054229 62 12 0.0 0.0 0.00 0.00 0.00 82
20260902054029 62 12 0.0 0.0 0.00 0.00 0.00 82
20260902053827 62 12 0.0 0.0 0.00 0.00 0.00 82
20260902053623 62 12 0.0 0.0 0.00 0.00 0.00 82
20260902052816 62 12 0.0 0.9 0.00 0.00 0.00 80
20260902052614 62 12 0.0 0.0 0.00 0.00 0.00 79
20260902052412 62 12 0.0 0.0 0.00 0.00 0.00 79
20260902052008 63 12 0.0 0.0 0.00 0.00 0.00 79
20260902051806 63 12 0.0 0.0 0.00 0.00 0.00 79
20260902051606 63 12 0.0 1.7 0.00 0.00 0.00 80
20260902051404 63 12 0.0 1.7 0.00 0.00 0.00 80
20260902051202 63 12 0.0 0.0 0.00 0.00 0.00 79
20260902050958 63 12 0.0 0.0 0.00 0.00 0.00 79
20260902050756 63 16 0.0 0.0 0.00 0.00 0.00 79
20260902050555 63 16 0.0 0.0 0.00 0.00 0.00 80
20260902050355 63 16 0.0 0.0 0.00 0.00 0.00 80
20260902045950 63 16 0.0 0.9 0.00 0.00 0.00 79
20260902045749 63 16 0.0 0.9 0.00 0.00 0.00 79
20260902045343 63 288 0.0 0.0 0.00 0.00 0.00 79
20260902045143 64 288 0.0 0.0 0.00 0.00 0.00 79
20260902044941 64 288 0.0 0.0 0.00 0.00 0.00 79
20260902044737 64 288 0.0 0.0 0.00 0.00 0.00 78
20260902044537 64 288 0.0 0.0 0.00 0.00 0.00 78
20260902044334 64 288 0.0 0.0 0.00 0.00 0.00 78
20260902044132 64 288 0.0 0.0 0.00 0.00 0.00 78
20260902043931 64 288 0.0 0.0 0.00 0.00 0.00 78
20260902043728 65 288 0.0 0.0 0.00 0.00 0.00 78
20260902043526 65 288 0.0 0.0 0.00 0.00 0.00 77
20260902043326 65 288 0.0 0.0 0.00 0.00 0.00 77
20260902043122 65 288 0.0 0.0 0.00 0.00 0.00 77
20260902042920 65 288 0.0 0.0 0.00 0.00 0.00 77
20260902042718 65 288 0.0 0.0 0.00 0.00 0.00 77
20260902042518 65 288 0.0 0.0 0.00 0.00 0.00 76
20260902042315 65 288 0.0 0.0 0.00 0.00 0.00 76
20260902041913 66 288 0.0 0.0 0.00 0.00 0.00 77
20260902041710 66 288 0.0 1.7 0.00 0.00 0.00 77
20260902041509 66 288 0.0 1.7 0.00 0.00 0.00 77
20260902041307 66 288 0.0 1.7 0.00 0.00 0.00 77
20260902041103 66 288 0.0 2.6 0.00 0.00 0.00 77
20260902040901 65 299 0.9 2.6 0.00 0.00 0.00 77
20260902040701 66 298 0.9 3.5 0.00 0.00 0.00 77
20260902040457 65 309 1.7 3.5 0.00 0.00 0.00 76
20260902040255 65 312 1.7 3.5 0.00 0.00 0.00 75
20260902040056 65 310 1.7 1.7 0.00 0.00 0.00 75
20260902035854 66 303 1.7 1.7 0.00 0.00 0.00 74
20260902035650 66 303 0.9 1.7 0.00 0.00 0.00 74
20260902035450 66 306 0.9 1.7 0.00 0.00 0.00 74
20260902035248 66 277 0.0 1.7 0.00 0.00 0.00 74
20260902035046 66 296 0.9 4.3 0.00 0.00 0.00 74
20260902034844 66 296 0.9 4.3 0.00 0.00 0.00 74
20260902034640 66 295 1.7 4.3 0.00 0.00 0.00 74
20260902034438 66 293 2.6 4.3 0.00 0.00 0.00 74
20260902034238 66 293 1.7 0.0 0.00 0.00 0.00 73
20260902034036 66 286 1.7 0.0 0.00 0.00 0.00 73
20260902033835 66 285 1.7 0.0 0.00 0.00 0.00 73
20260902033631 66 260 0.0 0.0 0.00 0.00 0.00 72
20260902033429 67 260 0.0 0.0 0.00 0.00 0.00 71
20260902033229 67 260 0.0 0.0 0.00 0.00 0.00 70
20260902033027 67 260 0.0 0.0 0.00 0.00 0.00 70
20260902032823 67 260 0.0 0.0 0.00 0.00 0.00 70
20260902032621 67 260 0.0 0.9 0.00 0.00 0.00 69
20260902032217 67 257 0.0 1.7 0.00 0.00 0.00 68
20260902032016 67 257 0.0 1.7 0.00 0.00 0.00 68
20260902031612 68 265 0.0 0.0 0.00 0.00 0.00 68
20260902031410 67 257 0.0 0.0 0.00 0.00 0.00 67
20260902031208 68 257 0.0 0.0 0.00 0.00 0.00 67
20260902031008 68 257 0.0 0.0 0.00 0.00 0.00 67
20260902030806 68 257 0.0 0.0 0.00 0.00 0.00 66
20260902030602 68 257 0.0 0.0 0.00 0.00 0.00 66
20260902030400 68 257 0.0 0.0 0.00 0.00 0.00 66
20260902030158 68 257 0.0 0.0 0.00 0.00 0.00 66
20260902025957 68 257 0.0 0.0 0.00 0.00 0.00 65
20260902025756 68 257 0.0 0.0 0.00 0.00 0.00 65
20260902025554 68 257 0.0 0.0 0.00 0.00 0.00 65
20260902025351 69 257 0.0 0.0 0.00 0.00 0.00 64
20260902025149 69 257 0.0 4.3 0.00 0.00 0.00 64
20260902024947 69 257 0.0 4.3 0.00 0.00 0.00 64
20260902024745 69 257 0.0 2.6 0.00 0.00 0.00 63
20260902024543 69 257 0.0 2.6 0.00 0.00 0.00 63
20260902024341 69 296 0.0 2.6 0.00 0.00 0.00 63
20260902024140 69 288 1.7 2.6 0.00 0.00 0.00 62
20260902023737 69 250 0.0 2.6 0.00 0.00 0.00 61
20260902023533 70 250 0.0 2.6 0.00 0.00 0.00 60
20260902023333 70 250 0.0 2.6 0.00 0.00 0.00 60
20260902022929 70 275 2.6 6.1 0.00 0.00 0.00 59
20260902022725 70 286 1.7 5.2 0.00 0.00 0.00 58
20260902022524 70 282 1.7 5.2 0.00 0.00 0.00 58
20260902022322 71 298 0.9 5.2 0.00 0.00 0.00 57
20260902022120 71 285 1.7 5.2 0.00 0.00 0.00 57
20260902021918 71 272 3.5 5.2 0.00 0.00 0.00 57
20260902021716 71 288 3.5 6.1 0.00 0.00 0.00 56
20260902021515 72 281 3.5 6.1 0.00 0.00 0.00 56
20260902021312 72 260 0.0 6.1 0.00 0.00 0.00 55
20260902021112 72 267 4.3 7.0 0.00 0.00 0.00 55
20260902020909 72 255 3.5 7.0 0.00 0.00 0.00 55
20260902020708 72 264 4.3 7.8 0.00 0.00 0.00 55
20260902020303 72 267 4.3 7.8 0.00 0.00 0.00 54
20260902015900 72 279 4.3 7.8 0.00 0.00 0.00 54
20260902015658 73 264 6.1 7.0 0.00 0.00 0.00 53
20260902015456 73 275 5.2 7.0 0.00 0.00 0.00 53
20260902015253 73 285 5.2 7.0 0.00 0.00 0.00 53
20260902015052 73 271 5.2 7.0 0.00 0.00 0.00 53
20260902014850 73 272 5.2 7.0 0.00 0.00 0.00 53
20260902014646 74 260 2.6 7.0 0.00 0.00 0.00 53
20260902014444 74 274 4.3 7.0 0.00 0.00 0.00 53
20260902014242 74 282 4.3 7.8 0.00 0.00 0.00 53
20260902014042 74 286 3.5 7.8 0.00 0.00 0.00 53
20260902013841 74 274 5.2 7.8 0.00 0.00 0.00 53
20260902013638 74 282 3.5 7.8 0.00 0.00 0.00 53
20260902013435 74 277 7.0 7.8 0.00 0.00 0.00 52
20260902013234 74 265 6.1 7.0 0.00 0.00 0.00 52
20260902013032 74 285 7.0 7.0 0.00 0.00 0.00 51
20260902012830 74 271 3.5 7.0 0.00 0.00 0.00 52
20260902012627 74 286 4.3 7.8 0.00 0.00 0.00 52
20260902012425 74 286 4.3 7.8 0.00 0.00 0.00 52
20260902012224 74 271 1.7 7.8 0.00 0.00 0.00 52
20260902012030 74 268 7.0 7.8 0.00 0.00 0.00 52
20260902012022 74 268 7.0 7.8 0.00 0.00 0.00 52
20260902011821 74 272 6.1 7.8 0.00 0.00 0.00 52
20260902011618 74 271 3.5 7.0 0.00 0.00 0.00 52
20260902011417 74 265 7.0 7.0 0.00 0.00 0.00 51
20260902011215 75 264 5.2 8.7 0.00 0.00 0.00 52
20260902010810 75 286 3.5 8.7 0.00 0.00 0.00 52
20260902010612 74 278 5.2 9.6 0.00 0.00 0.00 52
20260902010608 74 278 5.2 9.6 0.00 0.00 0.00 52
20260902010405 74 298 3.5 9.6 0.00 0.00 0.00 53
20260902010205 75 261 4.3 7.8 0.00 0.00 0.00 53
20260902005759 75 281 5.2 7.8 0.00 0.00 0.00 52
20260902005557 75 316 3.5 8.7 0.00 0.00 0.00 52
20260902005355 75 278 7.0 8.7 0.00 0.00 0.00 51
20260902005153 75 244 0.9 7.8 0.00 0.00 0.00 52
20260902004953 75 274 3.5 7.8 0.00 0.00 0.00 52
20260902004751 75 262 7.0 7.8 0.00 0.00 0.00 52
20260902004547 76 285 5.2 8.7 0.00 0.00 0.00 52
20260902004346 76 272 4.3 8.7 0.00 0.00 0.00 52
20260902004144 75 253 5.2 9.6 0.00 0.00 0.00 52
20260902003943 75 272 2.6 9.6 0.00 0.00 0.00 53
20260902003740 76 274 7.0 10.4 0.00 0.00 0.00 52
20260902003538 75 279 6.1 10.4 0.00 0.00 0.00 52
20260902003336 75 278 5.2 10.4 0.00 0.00 0.00 52
20260902003134 75 274 4.3 9.6 0.00 0.00 0.00 53
20260902002932 75 289 6.1 9.6 0.00 0.00 0.00 53
20260902002326 76 272 6.1 9.6 0.00 0.00 0.00 52
20260902002124 76 264 5.2 10.4 0.00 0.00 0.00 51
20260902001923 76 296 4.3 10.4 0.00 0.00 0.00 52
20260902001720 76 261 6.1 10.4 0.00 0.00 0.00 52
20260902001518 76 272 7.8 10.4 0.00 0.00 0.00 52
20260902001316 76 286 7.0 10.4 0.00 0.00 0.00 52
20260902001116 77 247 7.0 8.7 0.00 0.00 0.00 51
20260902000912 77 279 4.3 8.7 0.00 0.00 0.00 51
20260902000712 76 277 5.2 11.3 0.00 0.00 0.00 52
20260902000508 77 284 4.3 11.3 0.00 0.00 0.00 52
20260902000308 76 277 2.6 11.3 0.00 0.00 0.00 52
20260902000104 76 251 4.3 11.3 0.00 0.00 0.00 53
20260901235904 75 279 7.8 11.3 0.00 0.00 0.00 52
20260901235701 76 241 9.6 13.0 0.00 0.00 0.00 52
20260901235500 76 271 4.3 13.0 0.00 0.00 0.00 52
20260901235257 76 282 6.1 13.0 0.00 0.00 0.00 53
20260901235056 76 250 6.1 13.0 0.00 0.00 0.00 54
20260901234853 75 261 7.8 13.0 0.00 0.00 0.00 53
20260901234652 75 289 7.8 11.3 0.00 0.00 0.00 53
20260901234449 75 293 5.2 11.3 0.00 0.00 0.00 53
20260901234247 76 265 7.8 11.3 0.00 0.00 0.00 52
20260901234045 76 248 4.3 11.3 0.00 0.00 0.00 53
20260901233845 76 261 7.0 11.3 0.00 0.00 0.00 53
20260901233641 76 284 6.1 11.3 0.00 0.00 0.00 52
20260901233441 76 275 6.1 11.3 0.00 0.00 0.00 52
20260901233035 77 258 7.8 11.3 0.00 0.00 0.00 52
20260901232835 77 271 6.1 11.3 0.00 0.00 0.00 52
20260901232631 76 271 7.0 12.2 0.00 0.00 0.00 52
20260901232429 76 275 8.7 12.2 0.00 0.00 0.00 52
20260901232227 76 260 10.4 12.2 0.00 0.00 0.00 52
20260901232027 77 268 7.8 12.2 0.00 0.00 0.00 51
20260901231825 77 198 3.5 12.2 0.00 0.00 0.00 52
20260901231621 77 255 11.3 12.2 0.00 0.00 0.00 52
20260901231421 77 258 9.6 12.2 0.00 0.00 0.00 51
20260901231017 78 271 0.0 10.4 0.00 0.00 0.00 51
20260901230815 78 222 0.9 10.4 0.00 0.00 0.00 51
20260901230411 77 268 10.4 11.3 0.00 0.00 0.00 51
20260901230210 78 258 4.3 9.6 0.00 0.00 0.00 51
20260901230006 78 258 7.0 9.6 0.00 0.00 0.00 51
20260901225805 78 248 7.8 9.6 0.00 0.00 0.00 50
20260901225602 78 230 4.3 13.0 0.00 0.00 0.00 51
20260901225402 78 258 7.0 13.0 0.00 0.00 0.00 51
20260901225200 78 203 0.9 12.2 0.00 0.00 0.00 51
20260901224957 78 241 9.6 12.2 0.00 0.00 0.00 51
20260901224756 78 267 2.6 12.2 0.00 0.00 0.00 51
20260901224554 78 270 5.2 13.0 0.00 0.00 0.00 51
20260901224352 78 229 5.2 13.0 0.00 0.00 0.00 51
20260901224151 78 281 7.8 11.3 0.00 0.00 0.00 51
20260901223948 78 192 0.9 11.3 0.00 0.00 0.00 52
20260901223749 77 199 4.3 13.9 0.00 0.00 0.00 52
20260901223543 77 258 7.8 13.9 0.00 0.00 0.00 52
20260901223342 77 251 7.8 13.9 0.00 0.00 0.00 52
20260901223141 77 264 7.0 14.8 0.00 0.00 0.00 52
20260901222937 77 264 11.3 14.8 0.00 0.00 0.00 51
20260901222736 77 251 8.7 16.5 0.00 0.00 0.00 51
20260901222534 77 253 7.8 16.5 0.00 0.00 0.00 51
20260901222333 77 262 7.8 16.5 0.00 0.00 0.00 51
20260901221727 78 243 9.6 13.9 0.00 0.00 0.00 50
20260901221523 78 271 5.2 13.9 0.00 0.00 0.00 49
20260901221323 78 262 9.6 13.9 0.00 0.00 0.00 49
20260901221121 78 282 8.7 13.0 0.00 0.00 0.00 50
20260901220920 78 268 7.8 13.0 0.00 0.00 0.00 48
20260901220717 78 232 9.6 13.9 0.00 0.00 0.00 49
20260901220513 79 264 9.6 13.9 0.00 0.00 0.00 50
20260901220313 78 275 4.3 13.9 0.00 0.00 0.00 50
20260901220116 78 265 7.0 13.0 0.00 0.00 0.00 50
20260901220111 78 265 7.0 13.0 0.00 0.00 0.00 50
20260901215909 78 285 9.6 13.0 0.00 0.00 0.00 50
20260901215707 78 257 9.6 13.9 0.00 0.00 0.00 50
20260901215306 78 272 7.0 13.9 0.00 0.00 0.00 51
20260901215102 78 262 7.0 12.2 0.00 0.00 0.00 51
20260901214900 78 247 13.0 12.2 0.00 0.00 0.00 51
20260901214456 78 260 11.3 15.6 0.00 0.00 0.00 52
20260901214254 77 246 8.7 15.6 0.00 0.00 0.00 52
20260901214050 77 272 12.2 14.8 0.00 0.00 0.00 52
20260901213850 77 270 13.0 14.8 0.00 0.00 0.00 51
20260901213648 78 251 10.4 14.8 0.00 0.00 0.00 50
20260901213446 78 255 6.1 14.8 0.00 0.00 0.00 51
20260901213244 78 246 10.4 13.9 0.00 0.00 0.00 51
20260901213042 78 265 7.8 13.9 0.00 0.00 0.00 51
20260901212840 78 254 11.3 13.9 0.00 0.00 0.00 51
20260901212638 78 262 8.7 13.9 0.00 0.00 0.00 51
20260901212436 78 279 10.4 13.9 0.00 0.00 0.00 51
20260901212234 78 268 11.3 13.0 0.00 0.00 0.00 50
20260901212032 79 265 13.0 13.0 0.00 0.00 0.00 49
20260901211830 79 260 8.7 13.0 0.00 0.00 0.00 50
20260901211628 78 264 7.0 17.4 0.00 0.00 0.00 50
20260901211426 79 272 7.8 17.4 0.00 0.00 0.00 51
20260901211225 79 261 7.8 14.8 0.00 0.00 0.00 51
20260901211023 78 265 7.0 14.8 0.00 0.00 0.00 51
20260901210618 78 278 12.2 14.8 0.00 0.00 0.00 51
20260901210417 78 291 5.2 14.8 0.00 0.00 0.00 51
20260901210213 78 247 4.3 15.6 0.00 0.00 0.00 51
20260901210011 78 267 12.2 15.6 0.00 0.00 0.00 51
20260901205811 78 265 11.3 15.6 0.00 0.00 0.00 51
20260901205609 79 232 11.3 13.0 0.00 0.00 0.00 49
20260901205407 79 271 7.0 13.0 0.00 0.00 0.00 50
20260901205003 79 261 5.2 14.8 0.00 0.00 0.00 50
20260901204759 78 277 3.5 14.8 0.00 0.00 0.00 51
20260901204559 78 271 11.3 14.8 0.00 0.00 0.00 51
20260901204357 78 267 11.3 14.8 0.00 0.00 0.00 50
20260901204156 79 234 7.0 13.0 0.00 0.00 0.00 50
20260901203952 79 285 8.7 13.0 0.00 0.00 0.00 49
20260901203347 80 268 7.0 11.3 0.00 0.00 0.00 49
20260901203145 79 264 8.7 13.0 0.00 0.00 0.00 49
20260901202943 79 279 6.1 13.0 0.00 0.00 0.00 48
20260901202740 79 261 5.2 13.0 0.00 0.00 0.00 49
20260901202338 79 293 6.1 13.0 0.00 0.00 0.00 48
20260901201934 80 261 8.7 12.2 0.00 0.00 0.00 47
20260901201732 80 278 6.1 13.0 0.00 0.00 0.00 46
20260901201530 80 261 8.7 13.0 0.00 0.00 0.00 47
20260901201126 79 258 7.8 11.3 0.00 0.00 0.00 48
20260901200924 80 267 5.2 11.3 0.00 0.00 0.00 47
20260901200520 80 265 7.8 11.3 0.00 0.00 0.00 47
20260901200318 80 250 7.8 11.3 0.00 0.00 0.00 47
20260901200116 80 243 3.5 11.3 0.00 0.00 0.00 48
20260901195914 80 271 7.0 11.3 0.00 0.00 0.00 47
20260901195712 80 240 5.2 13.0 0.00 0.00 0.00 47
20260901195510 80 275 7.8 13.0 0.00 0.00 0.00 48
20260901195309 80 285 3.5 13.0 0.00 0.00 0.00 47
20260901195106 79 275 7.0 9.6 0.00 0.00 0.00 48
20260901194904 79 257 9.6 9.6 0.00 0.00 0.00 47
20260901194703 80 286 5.2 13.9 0.00 0.00 0.00 47
20260901194501 80 275 7.8 13.9 0.00 0.00 0.00 48
20260901194259 80 246 7.8 13.9 0.00 0.00 0.00 47
20260901194056 79 261 10.4 8.7 0.00 0.00 0.00 46
20260901193855 80 264 8.7 8.7 0.00 0.00 0.00 45
20260901193047 79 227 2.6 12.2 0.00 0.00 0.00 47
20260901192843 79 264 4.3 12.2 0.00 0.00 0.00 46
20260901192643 79 260 8.7 12.2 0.00 0.00 0.00 46
20260901192441 79 274 5.2 12.2 0.00 0.00 0.00 46
20260901192237 79 271 6.1 13.0 0.00 0.00 0.00 46
20260901192036 79 258 5.2 13.0 0.00 0.00 0.00 47
20260901191836 79 277 3.5 13.0 0.00 0.00 0.00 47
20260901191633 78 262 11.3 13.0 0.00 0.00 0.00 47
20260901191431 79 271 9.6 13.0 0.00 0.00 0.00 47
20260901191228 79 295 5.2 10.4 0.00 0.00 0.00 46
20260901191027 79 264 1.7 10.4 0.00 0.00 0.00 46
20260901190823 78 257 7.0 10.4 0.00 0.00 0.00 47
20260901190422 78 255 7.8 7.8 0.00 0.00 0.00 48
20260901190220 78 310 2.6 9.6 0.00 0.00 0.00 49
20260901190016 78 271 5.2 9.6 0.00 0.00 0.00 48
20260901185816 78 270 4.3 9.6 0.00 0.00 0.00 48
20260901185612 78 281 6.1 10.4 0.00 0.00 0.00 48
20260901185210 78 260 5.2 7.8 0.00 0.00 0.00 49
20260901185008 78 268 9.6 7.8 0.00 0.00 0.00 49
20260901184602 78 277 5.2 7.0 0.00 0.00 0.00 48
20260901184402 78 271 6.1 7.0 0.00 0.00 0.00 48
20260901184159 78 298 2.6 8.7 0.00 0.00 0.00 50
20260901183958 77 275 4.3 8.7 0.00 0.00 0.00 51
20260901183754 77 236 0.0 8.7 0.00 0.00 0.00 52
20260901183554 77 281 6.1 9.6 0.00 0.00 0.00 52
20260901183352 77 307 4.3 9.6 0.00 0.00 0.00 52
20260901183150 76 281 6.1 9.6 0.00 0.00 0.00 52
20260901182948 77 250 5.2 9.6 0.00 0.00 0.00 54
20260901182744 77 275 4.3 7.8 0.00 0.00 0.00 53
20260901182542 76 270 6.1 7.8 0.00 0.00 0.00 54
20260901182342 76 262 8.7 7.8 0.00 0.00 0.00 53
20260901182140 76 260 6.1 8.7 0.00 0.00 0.00 55
20260901181938 76 241 2.6 8.7 0.00 0.00 0.00 56
20260901181737 76 199 0.0 9.6 0.00 0.00 0.00 56
20260901181534 76 271 8.7 9.6 0.00 0.00 0.00 56
20260901181332 76 255 4.3 9.6 0.00 0.00 0.00 56
20260901181130 76 255 6.1 8.7 0.00 0.00 0.00 56
20260901180930 76 277 6.1 8.7 0.00 0.00 0.00 56
20260901180727 76 262 5.2 8.7 0.00 0.00 0.00 56
20260901180524 76 274 4.3 8.7 0.00 0.00 0.00 56
20260901180321 76 232 0.0 8.7 0.00 0.00 0.00 57
20260901175717 77 277 6.1 7.0 0.00 0.00 0.00 54
20260901175515 77 239 0.9 7.0 0.00 0.00 0.00 54
20260901175111 77 300 3.5 3.5 0.00 0.00 0.00 53
20260901174909 77 125 0.0 3.5 0.00 0.00 0.00 55
20260901174710 77 125 0.0 4.3 0.00 0.00 0.00 54
20260901174303 76 143 0.0 4.3 0.00 0.00 0.00 57
20260901174100 75 191 0.0 0.9 0.00 0.00 0.00 56
20260901173859 75 264 1.7 0.9 0.00 0.00 0.00 59
20260901173453 74 57 0.0 3.5 0.00 0.00 0.00 62
20260901173251 73 213 0.0 3.5 0.00 0.00 0.00 63
20260901173051 73 240 0.9 2.6 0.00 0.00 0.00 63
20260901172847 73 316 1.7 2.6 0.00 0.00 0.00 62
20260901172645 72 296 0.0 1.7 0.00 0.00 0.00 66
20260901172241 71 310 0.0 4.3 0.00 0.00 0.00 69
20260901172039 70 234 0.9 4.3 0.00 0.00 0.00 70
20260901171838 70 198 0.0 4.3 0.00 0.00 0.00 71
20260901171635 69 198 0.0 6.1 0.00 0.00 0.00 72
20260901171433 69 229 1.7 6.1 0.00 0.00 0.00 72
20260901171232 69 237 0.9 7.0 0.00 0.00 0.00 72
20260901171225 68 281 5.2 7.0 0.00 0.00 0.00 73
20260901171031 68 281 5.2 7.0 0.00 0.00 0.00 73
20260901170830 68 307 1.7 7.0 0.00 0.00 0.00 75
20260901170425 67 310 1.7 6.1 0.00 0.00 0.00 76
20260901170224 67 298 3.5 7.0 0.00 0.00 0.00 76
20260901165820 67 284 5.2 7.0 0.00 0.00 0.00 77
20260901165414 66 279 6.1 7.0 0.00 0.00 0.00 77
20260901165212 66 310 3.5 7.8 0.00 0.00 0.00 77
20260901164809 66 278 3.5 7.8 0.00 0.00 0.00 79
20260901164607 66 270 6.1 7.8 0.00 0.00 0.00 78
20260901164405 65 277 3.5 7.8 0.00 0.00 0.00 79
20260901164203 65 292 3.5 9.6 0.00 0.00 0.00 81
20260901164001 65 296 3.5 9.6 0.00 0.00 0.00 82
20260901163759 64 289 6.1 9.6 0.00 0.00 0.00 82
20260901163713 64 258 8.7 7.0 0.00 0.00 0.00 82
20260901163557 64 258 8.7 7.0 0.00 0.00 0.00 82
20260901163355 64 262 7.0 7.0 0.00 0.00 0.00 84
20260901163153 64 271 4.3 7.0 0.00 0.00 0.00 85
20260901162952 63 270 4.3 7.0 0.00 0.00 0.00 86
20260901162750 63 279 4.3 7.0 0.00 0.00 0.00 88
20260901162548 63 277 1.7 5.2 0.00 0.00 0.00 89
20260901162346 62 279 2.6 5.2 0.00 0.00 0.00 91
20260901162144 62 278 3.5 4.3 0.00 0.00 0.00 92
20260901161740 61 253 0.0 2.6 0.00 0.00 0.00 95
20260901161538 61 305 1.7 2.6 0.00 0.00 0.00 95
20260901161336 61 240 0.0 2.6 0.00 0.00 0.00 95
20260901161135 61 240 0.0 1.7 0.00 0.00 0.00 95
20260901160933 60 264 0.0 1.7 0.00 0.00 0.00 96
20260901160731 60 260 0.0 3.5 0.00 0.00 0.00 95
20260901160529 60 272 0.0 3.5 0.00 0.00 0.00 96
20260901155923 60 261 0.0 1.7 0.00 0.00 0.00 96
20260901155721 60 261 0.0 0.0 0.00 0.00 0.00 96
20260901155317 60 111 0.0 0.0 0.00 0.00 0.00 96
20260901154914 60 111 0.0 2.6 0.00 0.00 0.00 96
20260901154712 60 111 0.0 0.0 0.00 0.00 0.00 96
20260901154510 60 64 0.0 0.0 0.00 0.00 0.00 96
20260901154106 59 64 0.0 2.6 0.00 0.00 0.00 96
20260901153904 59 64 0.0 2.6 0.00 0.00 0.00 96
20260901153702 59 64 0.0 4.3 0.00 0.00 0.00 96
20260901153056 59 71 0.0 0.0 0.00 0.00 0.00 96
20260901152855 59 277 0.0 0.0 0.00 0.00 0.00 96
20260901152653 58 277 0.0 0.0 0.00 0.00 0.00 96
20260901152451 58 277 0.0 0.0 0.00 0.00 0.00 96
20260901152047 58 277 0.0 0.0 0.00 0.00 0.00 96
20260901151845 58 277 0.0 0.0 0.00 0.00 0.00 96
20260901151643 58 277 0.0 0.0 0.00 0.00 0.00 96
20260901151441 58 277 0.0 0.0 0.00 0.00 0.00 96
20260901151037 58 277 0.0 0.0 0.00 0.00 0.00 96
20260901150836 58 277 0.0 0.0 0.00 0.00 0.00 96
20260901150634 58 277 0.0 0.0 0.00 0.00 0.00 96
20260901150432 58 277 0.0 0.0 0.00 0.00 0.00 96
20260901150230 58 277 0.0 0.0 0.00 0.00 0.00 96
20260901150028 58 277 0.0 0.0 0.00 0.00 0.00 96
20260901145826 58 277 0.0 0.0 0.00 0.00 0.00 96
20260901145624 57 277 0.0 3.5 0.00 0.00 0.00 96
20260901145422 57 277 0.0 3.5 0.00 0.00 0.00 96
20260901145220 58 277 0.0 3.5 0.00 0.00 0.00 96
20260901145018 58 292 2.6 3.5 0.00 0.00 0.00 96
20260901144817 57 277 0.0 3.5 0.00 0.00 0.00 96
20260901144413 57 292 0.0 0.0 0.00 0.00 0.00 96
20260901143807 57 292 0.0 3.5 0.00 0.00 0.00 96
20260901143605 58 291 1.7 3.5 0.00 0.00 0.00 96
20260901142959 58 289 2.6 5.2 0.00 0.00 0.00 96
20260901142758 58 264 2.6 5.2 0.00 0.00 0.00 96
20260901142556 58 270 4.3 4.3 0.00 0.00 0.00 96
20260901142152 58 255 0.0 0.0 0.00 0.00 0.00 96
20260901141748 58 255 0.0 0.0 0.00 0.00 0.00 96
20260901141546 58 255 0.0 0.0 0.00 0.00 0.00 96
20260901141344 58 255 0.0 0.0 0.00 0.00 0.00 96
20260901141142 58 255 0.0 0.9 0.00 0.00 0.00 96
20260901140940 58 255 0.0 0.9 0.00 0.00 0.00 96
20260901140740 58 255 0.0 0.0 0.00 0.00 0.00 96
20260901140335 58 84 0.0 0.0 0.00 0.00 0.00 96
20260901140133 58 84 0.0 0.0 0.00 0.00 0.00 96
20260901135729 58 84 0.0 0.0 0.00 0.00 0.00 96
20260901135529 58 84 0.0 0.0 0.00 0.00 0.00 96
20260901135325 58 84 0.0 0.0 0.00 0.00 0.00 96
20260901135123 58 84 0.0 0.0 0.00 0.00 0.00 96
20260901134921 58 84 0.0 0.0 0.00 0.00 0.00 96
20260901134720 57 84 0.0 0.0 0.00 0.00 0.00 96
20260901134518 57 84 0.0 0.0 0.00 0.00 0.00 96
20260901134316 57 84 0.0 0.0 0.00 0.00 0.00 96
20260901134114 57 84 0.0 3.5 0.00 0.00 0.00 96
20260901133912 57 84 0.0 3.5 0.00 0.00 0.00 96
20260901133710 57 84 0.0 3.5 0.00 0.00 0.00 96
20260901133508 57 84 0.0 3.5 0.00 0.00 0.00 96
20260901133306 57 60 0.9 3.5 0.00 0.00 0.00 95
20260901133104 57 75 0.9 0.0 0.00 0.00 0.00 96
20260901132902 57 50 0.0 0.0 0.00 0.00 0.00 96
20260901132700 57 50 0.0 2.6 0.00 0.00 0.00 95
20260901132459 57 50 0.0 2.6 0.00 0.00 0.00 95
20260901132257 57 50 0.0 2.6 0.00 0.00 0.00 95
20260901132055 57 63 0.0 3.5 0.00 0.00 0.00 95
20260901131853 57 75 0.0 3.5 0.00 0.00 0.00 95
20260901131651 57 94 0.9 0.9 0.00 0.00 0.00 95
20260901131247 57 45 0.0 0.9 0.00 0.00 0.00 95
20260901131045 57 281 0.0 0.0 0.00 0.00 0.00 95
20260901130843 57 281 0.0 0.0 0.00 0.00 0.00 95
20260901130641 57 281 0.0 0.0 0.00 0.00 0.00 95
20260901130439 57 281 0.0 0.0 0.00 0.00 0.00 95
20260901130238 57 281 0.0 0.0 0.00 0.00 0.00 95
20260901130036 57 281 0.0 0.0 0.00 0.00 0.00 95
20260901125834 57 281 0.0 0.0 0.00 0.00 0.00 95
20260901125632 57 281 0.0 0.0 0.00 0.00 0.00 95
20260901125430 57 281 0.0 0.0 0.00 0.00 0.00 95
20260901125026 57 281 0.0 0.0 0.00 0.00 0.00 95
20260901124824 57 281 0.0 0.0 0.00 0.00 0.00 95
20260901124622 57 281 0.0 0.0 0.00 0.00 0.00 95
20260901124420 57 281 0.0 0.0 0.00 0.00 0.00 95
20260901124218 57 281 0.0 0.0 0.00 0.00 0.00 95
20260901124017 56 281 0.0 0.0 0.00 0.00 0.00 95
20260901123815 56 281 0.0 0.0 0.00 0.00 0.00 96
20260901123613 56 281 0.0 0.0 0.00 0.00 0.00 96
20260901123411 56 281 0.0 0.0 0.00 0.00 0.00 96
20260901123209 56 281 0.0 0.0 0.00 0.00 0.00 95
20260901123007 56 281 0.0 0.0 0.00 0.00 0.00 95
20260901122805 55 281 0.0 0.0 0.00 0.00 0.00 95
20260901122603 55 281 0.0 0.0 0.00 0.00 0.00 95
20260901122401 55 281 0.0 0.0 0.00 0.00 0.00 95
20260901122159 55 281 0.0 0.0 0.00 0.00 0.00 95
20260901121959 56 281 0.0 0.0 0.00 0.00 0.00 95
20260901121756 56 281 0.0 0.0 0.00 0.00 0.00 95
20260901121554 55 281 0.0 0.0 0.00 0.00 0.00 95
20260901121352 56 281 0.0 0.0 0.00 0.00 0.00 95
20260901121150 56 281 0.0 0.0 0.00 0.00 0.00 95
20260901120948 56 281 0.0 0.0 0.00 0.00 0.00 95